| time (UTC) | temp F | wind direction | speed MPH | gust MPH | rain 1hr in | rain 24hr in | rain mn in | humidity % | barometer mb |
| 20260506092924 | 64 | 245 | 4.0 | 10.0 | 0.00 | 0.00 | 0.00 | 6 | 1009.0 |
| 20260506092424 | 64 | 208 | 3.0 | 10.0 | 0.00 | 0.00 | 0.00 | 6 | 1009.0 |
| 20260506091924 | 64 | 204 | 7.0 | 22.0 | 0.00 | 0.00 | 0.00 | 6 | 1009.3 |
| 20260506091424 | 64 | 156 | 10.0 | 18.0 | 0.00 | 0.00 | 0.00 | 6 | 1009.2 |
| 20260506090924 | 64 | 191 | 10.0 | 14.0 | 0.00 | 0.00 | 0.00 | 6 | 1009.2 |
| 20260506090424 | 64 | 313 | 5.0 | 14.0 | 0.00 | 0.00 | 0.00 | 6 | 1009.2 |
| 20260506085924 | 64 | 209 | 4.0 | 10.0 | 0.00 | 0.00 | 0.00 | 6 | 1009.2 |
| 20260506085424 | 64 | 162 | 6.0 | 11.0 | 0.00 | 0.00 | 0.00 | 6 | 1009.2 |
| 20260506084924 | 64 | 134 | 4.0 | 13.0 | 0.00 | 0.00 | 0.00 | 6 | 1009.1 |
| 20260506084424 | 64 | 173 | 7.0 | 19.0 | 0.00 | 0.00 | 0.00 | 6 | 1009.6 |
| 20260506083924 | 63 | 140 | 8.0 | 17.0 | 0.00 | 0.00 | 0.00 | 6 | 1009.2 |
| 20260506083424 | 63 | 188 | 5.0 | 11.0 | 0.00 | 0.00 | 0.00 | 6 | 1009.4 |
| 20260506082924 | 62 | 153 | 10.0 | 12.0 | 0.00 | 0.00 | 0.00 | 6 | 1009.2 |
| 20260506082424 | 62 | 149 | 8.0 | 12.0 | 0.00 | 0.00 | 0.00 | 6 | 1009.3 |
| 20260506081924 | 62 | 127 | 4.0 | 9.0 | 0.00 | 0.00 | 0.00 | 6 | 1009.3 |
| 20260506081424 | 61 | 114 | 2.0 | 9.0 | 0.00 | 0.00 | 0.00 | 6 | 1009.4 |
| 20260506080924 | 61 | 175 | 2.0 | 9.0 | 0.00 | 0.00 | 0.00 | 6 | 1009.5 |
| 20260506080424 | 61 | 148 | 8.0 | 11.0 | 0.00 | 0.00 | 0.00 | 6 | 1009.4 |
| 20260506073424 | 59 | 147 | 2.0 | 14.0 | 0.00 | 0.00 | 0.00 | 6 | 1009.7 |
| 20260506072924 | 59 | 207 | 4.0 | 5.0 | 0.00 | 0.00 | 0.00 | 6 | 1009.5 |
| 20260506072424 | 59 | 261 | 2.0 | 8.0 | 0.00 | 0.00 | 0.00 | 7 | 1009.6 |
| 20260506071924 | 58 | 276 | 3.0 | 9.0 | 0.00 | 0.00 | 0.00 | 7 | 1009.6 |
| 20260506071424 | 58 | 201 | 3.0 | 6.0 | 0.00 | 0.00 | 0.00 | 7 | 1009.7 |
| 20260506070923 | 58 | 157 | 3.0 | 6.0 | 0.00 | 0.00 | 0.00 | 7 | 1009.6 |
| 20260506070423 | 57 | 206 | 9.0 | 14.0 | 0.00 | 0.00 | 0.00 | 7 | 1009.6 |
| 20260506062423 | 55 | 243 | 5.0 | 11.0 | 0.00 | 0.00 | 0.00 | 7 | 1009.9 |
| 20260506061923 | 55 | 186 | 1.0 | 10.0 | 0.00 | 0.00 | 0.00 | 7 | 1009.9 |
| 20260506061423 | 55 | 215 | 7.0 | 11.0 | 0.00 | 0.00 | 0.00 | 7 | 1010.0 |
| 20260506060923 | 55 | 246 | 2.0 | 6.0 | 0.00 | 0.00 | 0.00 | 7 | 1009.7 |
| 20260506060423 | 55 | 182 | 2.0 | 8.0 | 0.00 | 0.00 | 0.00 | 7 | 1009.7 |
| 20260506050923 | 53 | 228 | 2.0 | 12.0 | 0.00 | 0.00 | 0.00 | 7 | 1009.9 |
| 20260506050423 | 53 | 207 | 1.0 | 9.0 | 0.00 | 0.00 | 0.00 | 7 | 1009.8 |
| 20260506044923 | 52 | 252 | 2.0 | 8.0 | 0.00 | 0.00 | 0.00 | 7 | 1009.5 |
| 20260506044423 | 52 | 255 | 4.0 | 5.0 | 0.00 | 0.00 | 0.00 | 7 | 1009.7 |
| 20260506043922 | 52 | 199 | 1.0 | 9.0 | 0.00 | 0.00 | 0.00 | 7 | 1009.8 |
| 20260506043422 | 52 | 243 | 5.0 | 8.0 | 0.00 | 0.00 | 0.00 | 7 | 1009.7 |
| 20260506042922 | 52 | 260 | 4.0 | 6.0 | 0.00 | 0.00 | 0.00 | 7 | 1009.4 |
| 20260506042422 | 52 | 266 | 2.0 | 6.0 | 0.00 | 0.00 | 0.00 | 7 | 1009.4 |
| 20260506041922 | 52 | 237 | 3.0 | 5.0 | 0.00 | 0.00 | 0.00 | 7 | 1009.5 |
| 20260506041422 | 52 | 167 | 1.0 | 6.0 | 0.00 | 0.00 | 0.00 | 7 | 1009.3 |
| 20260506040922 | 52 | 227 | 3.0 | 5.0 | 0.00 | 0.00 | 0.00 | 7 | 1009.4 |
| 20260506040422 | 52 | 222 | 3.0 | 8.0 | 0.00 | 0.00 | 0.00 | 7 | 1009.3 |
| 20260506035922 | 52 | 262 | 0.0 | 6.0 | 0.00 | 0.00 | 0.00 | 7 | 1009.4 |
| 20260506035422 | 51 | 229 | 3.0 | 5.0 | 0.00 | 0.00 | 0.00 | 7 | 1009.7 |
| 20260506034922 | 51 | 255 | 2.0 | 5.0 | 0.00 | 0.00 | 0.00 | 7 | 1009.4 |
| 20260506034422 | 52 | 251 | 2.0 | 4.0 | 0.00 | 0.00 | 0.00 | 7 | 1009.2 |
| 20260506033922 | 52 | 231 | 3.0 | 5.0 | 0.00 | 0.00 | 0.00 | 7 | 1009.7 |
| 20260506033422 | 52 | 228 | 1.0 | 6.0 | 0.00 | 0.00 | 0.00 | 7 | 1009.6 |
| 20260506032922 | 52 | 227 | 1.0 | 3.0 | 0.00 | 0.00 | 0.00 | 7 | 1009.1 |
| 20260506032422 | 52 | 272 | 3.0 | 4.0 | 0.00 | 0.00 | 0.00 | 7 | 1009.3 |
| 20260506031922 | 52 | 252 | 1.0 | 3.0 | 0.00 | 0.00 | 0.00 | 7 | 1009.3 |
| 20260506031422 | 52 | 225 | 1.0 | 4.0 | 0.00 | 0.00 | 0.00 | 7 | 1009.1 |
| 20260506030922 | 52 | 253 | 1.0 | 3.0 | 0.00 | 0.00 | 0.00 | 7 | 1009.2 |
| 20260506030422 | 52 | 246 | 3.0 | 4.0 | 0.00 | 0.00 | 0.00 | 7 | 1009.2 |
| 20260506025922 | 52 | 179 | 4.0 | 6.0 | 0.00 | 0.00 | 0.00 | 7 | 1009.0 |
| 20260506025422 | 53 | 215 | 2.0 | 6.0 | 0.00 | 0.00 | 0.00 | 7 | 1009.3 |
| 20260506024922 | 53 | 225 | 4.0 | 6.0 | 0.00 | 0.00 | 0.00 | 7 | 1009.0 |
| 20260506024422 | 53 | 240 | 2.0 | 4.0 | 0.00 | 0.00 | 0.00 | 7 | 1008.9 |
| 20260506023922 | 53 | 147 | 2.0 | 9.0 | 0.00 | 0.00 | 0.00 | 7 | 1009.1 |
| 20260506023422 | 53 | 235 | 1.0 | 4.0 | 0.00 | 0.00 | 0.00 | 7 | 1009.1 |
| 20260506022925 | 53 | 153 | 3.0 | 6.0 | 0.00 | 0.00 | 0.00 | 7 | 1009.1 |
| 20260506022422 | 53 | 128 | 3.0 | 6.0 | 0.00 | 0.00 | 0.00 | 7 | 1009.2 |
| 20260506021922 | 53 | 272 | 2.0 | 5.0 | 0.00 | 0.00 | 0.00 | 7 | 1009.3 |
| 20260506021422 | 53 | 228 | 2.0 | 6.0 | 0.00 | 0.00 | 0.00 | 7 | 1009.3 |
| 20260506020921 | 53 | 241 | 1.0 | 5.0 | 0.00 | 0.00 | 0.00 | 7 | 1009.3 |
| 20260506020422 | 54 | 216 | 1.0 | 6.0 | 0.00 | 0.00 | 0.00 | 7 | 1009.0 |
| 20260506015921 | 54 | 177 | 1.0 | 8.0 | 0.00 | 0.00 | 0.00 | 7 | 1009.0 |
| 20260506015421 | 54 | 226 | 2.0 | 4.0 | 0.00 | 0.00 | 0.00 | 7 | 1009.1 |
| 20260506014921 | 54 | 218 | 1.0 | 5.0 | 0.00 | 0.00 | 0.00 | 7 | 1009.2 |
| 20260506014421 | 54 | 180 | 4.0 | 5.0 | 0.00 | 0.00 | 0.00 | 7 | 1009.4 |
| 20260506013921 | 54 | 269 | 8.0 | 11.0 | 0.00 | 0.00 | 0.00 | 7 | 1009.5 |
| 20260506013421 | 54 | 227 | 4.0 | 10.0 | 0.00 | 0.00 | 0.00 | 7 | 1009.4 |
| 20260506012921 | 54 | 206 | 4.0 | 5.0 | 0.00 | 0.00 | 0.00 | 7 | 1009.4 |
| 20260506012421 | 54 | 251 | 2.0 | 4.0 | 0.00 | 0.00 | 0.00 | 7 | 1009.4 |
| 20260506011921 | 54 | 165 | 6.0 | 13.0 | 0.00 | 0.00 | 0.00 | 6 | 1009.3 |
| 20260506011421 | 54 | 247 | 6.0 | 9.0 | 0.00 | 0.00 | 0.00 | 6 | 1009.3 |
| 20260506010921 | 54 | 140 | 4.0 | 5.0 | 0.00 | 0.00 | 0.00 | 7 | 1009.3 |
| 20260506010421 | 54 | 229 | 8.0 | 12.0 | 0.00 | 0.00 | 0.00 | 6 | 1009.1 |
| 20260506005921 | 55 | 181 | 4.0 | 6.0 | 0.00 | 0.00 | 0.00 | 6 | 1009.3 |
| 20260506005421 | 55 | 224 | 5.0 | 6.0 | 0.00 | 0.00 | 0.00 | 6 | 1009.4 |
| 20260506004921 | 55 | 207 | 5.0 | 9.0 | 0.00 | 0.00 | 0.00 | 6 | 1009.1 |
| 20260506004421 | 55 | 235 | 4.0 | 10.0 | 0.00 | 0.00 | 0.00 | 6 | 1009.2 |
| 20260506003921 | 55 | 186 | 8.0 | 12.0 | 0.00 | 0.00 | 0.00 | 6 | 1009.3 |
| 20260506003421 | 55 | 180 | 6.0 | 10.0 | 0.00 | 0.00 | 0.00 | 6 | 1009.4 |
| 20260506002921 | 55 | 211 | 5.0 | 9.0 | 0.00 | 0.00 | 0.00 | 6 | 1009.4 |
| 20260506002421 | 55 | 173 | 4.0 | 8.0 | 0.00 | 0.00 | 0.00 | 6 | 1009.1 |
| 20260506001921 | 55 | 160 | 3.0 | 10.0 | 0.00 | 0.00 | 0.00 | 6 | 1009.2 |
| 20260506001426 | 55 | 242 | 3.0 | 8.0 | 0.00 | 0.00 | 0.00 | 6 | 1009.0 |
| 20260506000921 | 56 | 219 | 2.0 | 12.0 | 0.00 | 0.00 | 0.00 | 6 | 1009.1 |
| 20260506000423 | 56 | 223 | 5.0 | 13.0 | 0.00 | 0.00 | 0.00 | 6 | 1009.3 |
| 20260505235921 | 56 | 204 | 6.0 | 10.0 | 0.00 | 0.00 | 0.00 | 6 | 1009.2 |
| 20260505235421 | 56 | 296 | 7.0 | 10.0 | 0.00 | 0.00 | 0.00 | 6 | 1009.5 |
| 20260505234921 | 56 | 222 | 4.0 | 8.0 | 0.00 | 0.00 | 0.00 | 6 | 1009.4 |
| 20260505234420 | 56 | 234 | 7.0 | 10.0 | 0.00 | 0.00 | 0.00 | 6 | 1009.7 |
| 20260505233921 | 56 | 163 | 4.0 | 10.0 | 0.00 | 0.00 | 0.00 | 6 | 1009.2 |
| 20260505233421 | 56 | 299 | 3.0 | 9.0 | 0.00 | 0.00 | 0.00 | 6 | 1009.6 |
| 20260505232920 | 57 | 172 | 2.0 | 15.0 | 0.00 | 0.00 | 0.00 | 6 | 1009.2 |
| 20260505232420 | 57 | 176 | 5.0 | 9.0 | 0.00 | 0.00 | 0.00 | 6 | 1009.5 |
| 20260505231920 | 57 | 152 | 6.0 | 10.0 | 0.00 | 0.00 | 0.00 | 6 | 1009.4 |
| 20260505231420 | 57 | 272 | 2.0 | 9.0 | 0.00 | 0.00 | 0.00 | 6 | 1009.3 |
| 20260505230920 | 57 | 258 | 3.0 | 9.0 | 0.00 | 0.00 | 0.00 | 6 | 1009.3 |
| 20260505230420 | 57 | 239 | 3.0 | 9.0 | 0.00 | 0.00 | 0.00 | 6 | 1009.5 |
| 20260505225920 | 57 | 237 | 3.0 | 9.0 | 0.00 | 0.00 | 0.00 | 6 | 1009.4 |
| 20260505225420 | 57 | 270 | 4.0 | 8.0 | 0.00 | 0.00 | 0.00 | 6 | 1009.6 |
| 20260505224920 | 57 | 250 | 2.0 | 8.0 | 0.00 | 0.00 | 0.00 | 6 | 1009.4 |
| 20260505224420 | 58 | 52 | 1.0 | 10.0 | 0.00 | 0.00 | 0.00 | 6 | 1009.4 |
| 20260505223920 | 58 | 280 | 7.0 | 9.0 | 0.00 | 0.00 | 0.00 | 6 | 1009.2 |
| 20260505223420 | 58 | 263 | 5.0 | 9.0 | 0.00 | 0.00 | 0.00 | 6 | 1009.4 |
| 20260505222920 | 58 | 265 | 5.0 | 9.0 | 0.00 | 0.00 | 0.00 | 6 | 1009.4 |
| 20260505222420 | 58 | 279 | 1.0 | 10.0 | 0.00 | 0.00 | 0.00 | 6 | 1009.2 |
| 20260505221920 | 58 | 216 | 6.0 | 10.0 | 0.00 | 0.00 | 0.00 | 6 | 1009.4 |
| 20260505221420 | 58 | 256 | 3.0 | 9.0 | 0.00 | 0.00 | 0.00 | 6 | 1009.2 |
| 20260505220920 | 58 | 179 | 2.0 | 9.0 | 0.00 | 0.00 | 0.00 | 6 | 1009.2 |
| 20260505220420 | 58 | 168 | 2.0 | 8.0 | 0.00 | 0.00 | 0.00 | 6 | 1009.4 |
| 20260505215920 | 58 | 192 | 2.0 | 8.0 | 0.00 | 0.00 | 0.00 | 6 | 1009.5 |
| 20260505215420 | 58 | 37 | 3.0 | 9.0 | 0.00 | 0.00 | 0.00 | 6 | 1009.1 |
| 20260505214920 | 58 | 233 | 5.0 | 10.0 | 0.00 | 0.00 | 0.00 | 6 | 1009.5 |
| 20260505214420 | 59 | 277 | 3.0 | 10.0 | 0.00 | 0.00 | 0.00 | 6 | 1009.4 |
| 20260505213920 | 59 | 234 | 2.0 | 6.0 | 0.00 | 0.00 | 0.00 | 6 | 1009.2 |
| 20260505213420 | 59 | 211 | 5.0 | 10.0 | 0.00 | 0.00 | 0.00 | 6 | 1009.4 |
| 20260505212920 | 59 | 262 | 4.0 | 15.0 | 0.00 | 0.00 | 0.00 | 6 | 1009.2 |
| 20260505212420 | 59 | 184 | 4.0 | 9.0 | 0.00 | 0.00 | 0.00 | 6 | 1009.3 |
| 20260505211920 | 59 | 247 | 7.0 | 12.0 | 0.00 | 0.00 | 0.00 | 6 | 1009.2 |
| 20260505211420 | 59 | 323 | 2.0 | 10.0 | 0.00 | 0.00 | 0.00 | 5 | 1009.3 |
| 20260505210920 | 59 | 247 | 3.0 | 13.0 | 0.00 | 0.00 | 0.00 | 6 | 1009.3 |
| 20260505210420 | 59 | 231 | 6.0 | 11.0 | 0.00 | 0.00 | 0.00 | 6 | 1009.0 |
| 20260505205919 | 60 | 257 | 4.0 | 11.0 | 0.00 | 0.00 | 0.00 | 6 | 1009.4 |
| 20260505205419 | 60 | 170 | 2.0 | 6.0 | 0.00 | 0.00 | 0.00 | 6 | 1009.3 |
| 20260505204919 | 60 | 243 | 3.0 | 8.0 | 0.00 | 0.00 | 0.00 | 5 | 1009.2 |
| 20260505204419 | 60 | 214 | 3.0 | 6.0 | 0.00 | 0.00 | 0.00 | 5 | 1009.7 |
| 20260505203919 | 60 | 255 | 3.0 | 11.0 | 0.00 | 0.00 | 0.00 | 5 | 1009.3 |
| 20260505203419 | 60 | 50 | 2.0 | 10.0 | 0.00 | 0.00 | 0.00 | 5 | 1009.6 |
| 20260505202919 | 60 | 259 | 2.0 | 10.0 | 0.00 | 0.00 | 0.00 | 5 | 1009.3 |
| 20260505202419 | 60 | 233 | 3.0 | 11.0 | 0.00 | 0.00 | 0.00 | 5 | 1009.3 |
| 20260505201919 | 60 | 227 | 5.0 | 11.0 | 0.00 | 0.00 | 0.00 | 5 | 1009.2 |
| 20260505201420 | 60 | 261 | 3.0 | 14.0 | 0.00 | 0.00 | 0.00 | 5 | 1009.3 |
| 20260505200919 | 60 | 304 | 5.0 | 13.0 | 0.00 | 0.00 | 0.00 | 5 | 1009.3 |
| 20260505200419 | 60 | 213 | 6.0 | 12.0 | 0.00 | 0.00 | 0.00 | 5 | 1009.1 |
| 20260505195919 | 61 | 234 | 4.0 | 13.0 | 0.00 | 0.00 | 0.00 | 5 | 1009.0 |
| 20260505195419 | 61 | 195 | 7.0 | 12.0 | 0.00 | 0.00 | 0.00 | 5 | 1009.3 |
| 20260505194919 | 61 | 281 | 6.0 | 12.0 | 0.00 | 0.00 | 0.00 | 5 | 1009.3 |
| 20260505194419 | 61 | 217 | 4.0 | 13.0 | 0.00 | 0.00 | 0.00 | 5 | 1009.1 |
| 20260505193919 | 62 | 283 | 4.0 | 15.0 | 0.00 | 0.00 | 0.00 | 5 | 1008.9 |
| 20260505193419 | 62 | 273 | 6.0 | 17.0 | 0.00 | 0.00 | 0.00 | 5 | 1008.9 |
| 20260505192919 | 62 | 258 | 2.0 | 12.0 | 0.00 | 0.00 | 0.00 | 5 | 1008.9 |
| 20260505192419 | 62 | 247 | 6.0 | 17.0 | 0.00 | 0.00 | 0.00 | 5 | 1009.1 |
| 20260505191919 | 62 | 234 | 4.0 | 11.0 | 0.00 | 0.00 | 0.00 | 5 | 1009.1 |
| 20260505191419 | 62 | 292 | 3.0 | 12.0 | 0.00 | 0.00 | 0.00 | 5 | 1009.2 |
| 20260505190919 | 63 | 264 | 6.0 | 12.0 | 0.00 | 0.00 | 0.00 | 5 | 1009.0 |
| 20260505190419 | 63 | 290 | 8.0 | 12.0 | 0.00 | 0.00 | 0.00 | 5 | 1008.8 |
| 20260505185919 | 63 | 263 | 2.0 | 9.0 | 0.00 | 0.00 | 0.00 | 5 | 1008.9 |
| 20260505185419 | 64 | 241 | 8.0 | 12.0 | 0.00 | 0.00 | 0.00 | 4 | 1008.8 |
| 20260505184919 | 64 | 249 | 6.0 | 11.0 | 0.00 | 0.00 | 0.00 | 4 | 1008.9 |
| 20260505184419 | 64 | 244 | 4.0 | 12.0 | 0.00 | 0.00 | 0.00 | 4 | 1008.5 |
| 20260505183919 | 65 | 253 | 7.0 | 10.0 | 0.00 | 0.00 | 0.00 | 4 | 1008.3 |
| 20260505183420 | 65 | 289 | 4.0 | 11.0 | 0.00 | 0.00 | 0.00 | 4 | 1008.5 |
| 20260505182918 | 65 | 325 | 5.0 | 10.0 | 0.00 | 0.00 | 0.00 | 4 | 1008.3 |
| 20260505182418 | 66 | 282 | 2.0 | 10.0 | 0.00 | 0.00 | 0.00 | 4 | 1008.5 |
| 20260505181918 | 66 | 258 | 1.0 | 6.0 | 0.00 | 0.00 | 0.00 | 4 | 1008.3 |
| 20260505181418 | 66 | 270 | 3.0 | 11.0 | 0.00 | 0.00 | 0.00 | 4 | 1008.2 |
| 20260505180918 | 66 | 221 | 4.0 | 11.0 | 0.00 | 0.00 | 0.00 | 4 | 1008.3 |
| 20260505180418 | 66 | 340 | 2.0 | 6.0 | 0.00 | 0.00 | 0.00 | 4 | 1008.5 |
| 20260505175918 | 66 | 271 | 2.0 | 11.0 | 0.00 | 0.00 | 0.00 | 4 | 1008.2 |
| 20260505175418 | 66 | 326 | 3.0 | 11.0 | 0.00 | 0.00 | 0.00 | 4 | 1008.2 |
| 20260505174918 | 66 | 280 | 2.0 | 11.0 | 0.00 | 0.00 | 0.00 | 4 | 1008.4 |
| 20260505174418 | 67 | 265 | 6.0 | 10.0 | 0.00 | 0.00 | 0.00 | 4 | 1008.1 |
| 20260505173918 | 67 | 231 | 2.0 | 10.0 | 0.00 | 0.00 | 0.00 | 4 | 1008.1 |
| 20260505173418 | 67 | 265 | 2.0 | 4.0 | 0.00 | 0.00 | 0.00 | 4 | 1008.3 |
| 20260505172918 | 67 | 273 | 1.0 | 10.0 | 0.00 | 0.00 | 0.00 | 4 | 1008.3 |
| 20260505172418 | 68 | 275 | 5.0 | 6.0 | 0.00 | 0.00 | 0.00 | 4 | 1008.3 |
| 20260505171918 | 68 | 214 | 3.0 | 9.0 | 0.00 | 0.00 | 0.00 | 4 | 1008.1 |
| 20260505171418 | 68 | 266 | 3.0 | 9.0 | 0.00 | 0.00 | 0.00 | 4 | 1008.1 |
| 20260505170918 | 69 | 249 | 3.0 | 6.0 | 0.00 | 0.00 | 0.00 | 4 | 1008.1 |
| 20260505170418 | 69 | 239 | 4.0 | 8.0 | 0.00 | 0.00 | 0.00 | 4 | 1008.0 |
| 20260505165918 | 69 | 232 | 4.0 | 6.0 | 0.00 | 0.00 | 0.00 | 4 | 1007.9 |
| 20260505165418 | 70 | 248 | 7.0 | 13.0 | 0.00 | 0.00 | 0.00 | 3 | 1008.1 |
| 20260505164918 | 70 | 259 | 3.0 | 11.0 | 0.00 | 0.00 | 0.00 | 3 | 1008.0 |
| 20260505164418 | 70 | 293 | 7.0 | 20.0 | 0.00 | 0.00 | 0.00 | 3 | 1007.8 |
| 20260505163918 | 71 | 292 | 4.0 | 11.0 | 0.00 | 0.00 | 0.00 | 3 | 1007.9 |
| 20260505163418 | 71 | 191 | 3.0 | 11.0 | 0.00 | 0.00 | 0.00 | 3 | 1007.9 |
| 20260505162918 | 71 | 136 | 6.0 | 6.0 | 0.00 | 0.00 | 0.00 | 3 | 1007.8 |
| 20260505162418 | 72 | 222 | 4.0 | 6.0 | 0.00 | 0.00 | 0.00 | 3 | 1007.8 |
| 20260505161918 | 72 | 219 | 7.0 | 15.0 | 0.00 | 0.00 | 0.00 | 3 | 1007.5 |
| 20260505161418 | 73 | 223 | 4.0 | 12.0 | 0.00 | 0.00 | 0.00 | 3 | 1007.6 |
| 20260505160918 | 73 | 294 | 6.0 | 8.0 | 0.00 | 0.00 | 0.00 | 3 | 1007.7 |
| 20260505160417 | 73 | 285 | 4.0 | 6.0 | 0.00 | 0.00 | 0.00 | 3 | 1007.9 |
| 20260505152917 | 72 | 164 | 10.0 | 21.0 | 0.00 | 0.00 | 0.00 | 3 | 1007.8 |
| 20260505152417 | 73 | 206 | 6.0 | 17.0 | 0.00 | 0.00 | 0.00 | 3 | 1008.1 |
| 20260505151917 | 72 | 183 | 11.0 | 17.0 | 0.00 | 0.00 | 0.00 | 3 | 1007.9 |
| 20260505151417 | 73 | 149 | 8.0 | 17.0 | 0.00 | 0.00 | 0.00 | 3 | 1008.1 |
| 20260505150917 | 73 | 202 | 7.0 | 14.0 | 0.00 | 0.00 | 0.00 | 3 | 1008.1 |
| 20260505150417 | 72 | 180 | 3.0 | 15.0 | 0.00 | 0.00 | 0.00 | 3 | 1008.0 |
| 20260505140417 | 73 | 189 | 12.0 | 17.0 | 0.00 | 0.00 | 0.00 | 3 | 1009.0 |
| 20260505124916 | 75 | 224 | 8.0 | 26.0 | 0.00 | 0.00 | 0.00 | 3 | 1008.8 |
| 20260505124416 | 75 | 174 | 9.0 | 19.0 | 0.00 | 0.00 | 0.00 | 3 | 1008.7 |
| 20260505123916 | 75 | 153 | 20.0 | 36.0 | 0.00 | 0.00 | 0.00 | 3 | 1009.1 |
| 20260505123416 | 74 | 178 | 5.0 | 13.0 | 0.00 | 0.00 | 0.00 | 3 | 1009.0 |
| 20260505122916 | 74 | 343 | 4.0 | 15.0 | 0.00 | 0.00 | 0.00 | 3 | 1009.3 |
| 20260505122417 | 74 | 172 | 10.0 | 17.0 | 0.00 | 0.00 | 0.00 | 3 | 1009.2 |
| 20260505121916 | 75 | 149 | 11.0 | 21.0 | 0.00 | 0.00 | 0.00 | 3 | 1009.4 |
| 20260505121416 | 75 | 132 | 7.0 | 19.0 | 0.00 | 0.00 | 0.00 | 3 | 1009.2 |
| 20260505120916 | 75 | 176 | 9.0 | 26.0 | 0.00 | 0.00 | 0.00 | 3 | 1009.3 |
| 20260505120416 | 75 | 151 | 11.0 | 26.0 | 0.00 | 0.00 | 0.00 | 3 | 1009.0 |
| 20260505115916 | 74 | 215 | 14.0 | 21.0 | 0.00 | 0.00 | 0.00 | 3 | 1009.1 |
| 20260505115416 | 74 | 153 | 12.0 | 25.0 | 0.00 | 0.00 | 0.00 | 3 | 1009.7 |
| 20260505114916 | 73 | 179 | 12.0 | 26.0 | 0.00 | 0.00 | 0.00 | 3 | 1009.3 |
| 20260505114416 | 73 | 175 | 14.0 | 19.0 | 0.00 | 0.00 | 0.00 | 3 | 1009.8 |
| 20260505113916 | 73 | 219 | 6.0 | 18.0 | 0.00 | 0.00 | 0.00 | 3 | 1009.7 |
| 20260505113416 | 73 | 155 | 14.0 | 18.0 | 0.00 | 0.00 | 0.00 | 3 | 1009.9 |
| 20260505112916 | 73 | 134 | 7.0 | 15.0 | 0.00 | 0.00 | 0.00 | 3 | 1009.6 |
| 20260505112416 | 74 | 141 | 10.0 | 18.0 | 0.00 | 0.00 | 0.00 | 3 | 1009.6 |
| 20260505111916 | 74 | 149 | 11.0 | 23.0 | 0.00 | 0.00 | 0.00 | 3 | 1009.6 |
| 20260505111416 | 73 | 140 | 5.0 | 14.0 | 0.00 | 0.00 | 0.00 | 3 | 1009.8 |
| 20260505110916 | 73 | 201 | 12.0 | 34.0 | 0.00 | 0.00 | 0.00 | 3 | 1010.1 |
| 20260505110416 | 73 | 154 | 11.0 | 17.0 | 0.00 | 0.00 | 0.00 | 3 | 1009.6 |
| 20260505101915 | 74 | 164 | 12.0 | 19.0 | 0.00 | 0.00 | 0.00 | 3 | 1010.4 |
| 20260505101415 | 74 | 222 | 13.0 | 25.0 | 0.00 | 0.00 | 0.00 | 3 | 1010.4 |
| 20260505100915 | 74 | 88 | 9.0 | 19.0 | 0.00 | 0.00 | 0.00 | 3 | 1010.3 |
| 20260505100415 | 74 | 132 | 10.0 | 21.0 | 0.00 | 0.00 | 0.00 | 3 | 1010.5 |
| 20260505095915 | 73 | 146 | 10.0 | 26.0 | 0.00 | 0.00 | 0.00 | 3 | 1010.6 |
| 20260505095415 | 73 | 211 | 9.0 | 13.0 | 0.00 | 0.00 | 0.00 | 3 | 1010.5 |
| 20260505094915 | 73 | 170 | 12.0 | 18.0 | 0.00 | 0.00 | 0.00 | 3 | 1010.8 |
| 20260505094415 | 73 | 193 | 9.0 | 19.0 | 0.00 | 0.00 | 0.00 | 3 | 1010.7 |
| 20260505093915 | 72 | 139 | 9.0 | 18.0 | 0.00 | 0.00 | 0.00 | 3 | 1010.9 |
| 20260505093415 | 72 | 138 | 4.0 | 15.0 | 0.00 | 0.00 | 0.00 | 3 | 1010.9 |